owner,sensor,date,latitude,longitude,vertical_datum,mass_concentration_of_oxygen_in_sea_water,qcFlag 
DISL,ioos:station:DISL:BSCA:1,2012-12-01T00:00:00Z,30.3288,-87.8293,2.008,9.41,1111122 
DISL,ioos:station:DISL:BSCA:1,2012-12-01T00:30:00Z,30.3288,-87.8293,2.037,9.23,1111122 
DISL,ioos:station:DISL:BSCA:1,2012-12-01T01:00:00Z,30.3288,-87.8293,2.059,9.24,1111122 
DISL,ioos:station:DISL:BSCA:1,2012-12-01T01:30:00Z,30.3288,-87.8293,2.105,9.28,1111122 
DISL,ioos:station:DISL:BSCA:1,2012-12-01T02:00:00Z,30.3288,-87.8293,2.125,9.12,1111122 
DISL,ioos:station:DISL:BSCA:1,2012-12-01T02:30:00Z,30.3288,-87.8293,2.159,9.1,1111122 
DISL,ioos:station:DISL:BSCA:1,2012-12-01T03:00:00Z,30.3288,-87.8293,2.183,9.12,1111122 
DISL,ioos:station:DISL:BSCA:1,2012-12-01T03:30:00Z,30.3288,-87.8293,2.203,9.12,1111122 
DISL,ioos:station:DISL:BSCA:1,2012-12-01T04:00:00Z,30.3288,-87.8293,2.235,8.87,1111122 
DISL,ioos:station:DISL:BSCA:1,2012-12-01T04:30:00Z,30.3288,-87.8293,2.246,9.34,1111122 
DISL,ioos:station:DISL:BSCA:1,2012-12-01T05:00:00Z,30.3288,-87.8293,2.246,9.55,1111122 
DISL,ioos:station:DISL:BSCA:1,2012-12-01T05:30:00Z,30.3288,-87.8293,2.199,9.27,1111122 
DISL,ioos:station:DISL:BSCA:1,2012-12-01T06:00:00Z,30.3288,-87.8293,2.221,9.04,1111122 
DISL,ioos:station:DISL:BSCA:1,2012-12-01T06:30:00Z,30.3288,-87.8293,2.214,9.15,1111122 
DISL,ioos:station:DISL:BSCA:1,2012-12-01T07:00:00Z,30.3288,-87.8293,2.208,9.05,1111122 
DISL,ioos:station:DISL:BSCA:1,2012-12-01T07:30:00Z,30.3288,-87.8293,2.191,9.29,1111122 
DISL,ioos:station:DISL:BSCA:1,2012-12-01T08:00:00Z,30.3288,-87.8293,2.169,9.41,1111122 
DISL,ioos:station:DISL:BSCA:1,2012-12-01T08:30:00Z,30.3288,-87.8293,2.144,9.25,1111122 
DISL,ioos:station:DISL:BSCA:1,2012-12-01T09:00:00Z,30.3288,-87.8293,2.11,9.09,1111122 
DISL,ioos:station:DISL:BSCA:1,2012-12-01T09:30:00Z,30.3288,-87.8293,2.065,9.14,1111122 
DISL,ioos:station:DISL:BSCA:1,2012-12-01T10:00:00Z,30.3288,-87.8293,2.058,8.98,1111122 
DISL,ioos:station:DISL:BSCA:1,2012-12-01T10:30:00Z,30.3288,-87.8293,1.992,8.57,1111122 
DISL,ioos:station:DISL:BSCA:1,2012-12-01T11:00:00Z,30.3288,-87.8293,1.961,8.13,1111122 
DISL,ioos:station:DISL:BSCA:1,2012-12-01T11:30:00Z,30.3288,-87.8293,1.933,8.32,1111122 
DISL,ioos:station:DISL:BSCA:1,2012-12-01T12:00:00Z,30.3288,-87.8293,1.896,8.93,1111122 
DISL,ioos:station:DISL:BSCA:1,2012-12-01T12:30:00Z,30.3288,-87.8293,1.873,9.16,1111122 
DISL,ioos:station:DISL:BSCA:1,2012-12-01T13:00:00Z,30.3288,-87.8293,1.854,9.44,1111122 
DISL,ioos:station:DISL:BSCA:1,2012-12-01T13:30:00Z,30.3288,-87.8293,1.833,9.38,1111122 
DISL,ioos:station:DISL:BSCA:1,2012-12-01T14:00:00Z,30.3288,-87.8293,1.805,9.32,1111122 
DISL,ioos:station:DISL:BSCA:1,2012-12-01T14:30:00Z,30.3288,-87.8293,1.781,9.32,1111122 
DISL,ioos:station:DISL:BSCA:1,2012-12-01T15:00:00Z,30.3288,-87.8293,1.762,9.51,1111122 
DISL,ioos:station:DISL:BSCA:1,2012-12-01T15:30:00Z,30.3288,-87.8293,1.756,9.48,1111122 
DISL,ioos:station:DISL:BSCA:1,2012-12-01T16:00:00Z,30.3288,-87.8293,1.746,9.4,1111122 
DISL,ioos:station:DISL:BSCA:1,2012-12-01T16:30:00Z,30.3288,-87.8293,1.752,9.66,1111122 
DISL,ioos:station:DISL:BSCA:1,2012-12-01T17:00:00Z,30.3288,-87.8293,1.754,9.67,1111122 
DISL,ioos:station:DISL:BSCA:1,2012-12-01T17:30:00Z,30.3288,-87.8293,1.757,9.6,1111122 
DISL,ioos:station:DISL:BSCA:1,2012-12-01T18:00:00Z,30.3288,-87.8293,1.77,9.75,1111122 
DISL,ioos:station:DISL:BSCA:1,2012-12-01T18:30:00Z,30.3288,-87.8293,1.783,9.87,1111122 
DISL,ioos:station:DISL:BSCA:1,2012-12-01T19:00:00Z,30.3288,-87.8293,1.799,9.77,1111122 
DISL,ioos:station:DISL:BSCA:1,2012-12-01T19:30:00Z,30.3288,-87.8293,1.819,9.72,1111122 
DISL,ioos:station:DISL:BSCA:1,2012-12-01T20:00:00Z,30.3288,-87.8293,1.844,9.84,1111122 
DISL,ioos:station:DISL:BSCA:1,2012-12-01T20:30:00Z,30.3288,-87.8293,1.859,9.74,1111122 
DISL,ioos:station:DISL:BSCA:1,2012-12-01T21:00:00Z,30.3288,-87.8293,1.879,9.74,1111122 
DISL,ioos:station:DISL:BSCA:1,2012-12-01T21:30:00Z,30.3288,-87.8293,1.9,9.78,1111122 
DISL,ioos:station:DISL:BSCA:1,2012-12-01T22:00:00Z,30.3288,-87.8293,1.913,9.86,1111122 
DISL,ioos:station:DISL:BSCA:1,2012-12-01T22:30:00Z,30.3288,-87.8293,1.938,9.85,1111122 
DISL,ioos:station:DISL:BSCA:1,2012-12-01T23:00:00Z,30.3288,-87.8293,1.95,9.76,1111122 
DISL,ioos:station:DISL:BSCA:1,2012-12-01T23:30:00Z,30.3288,-87.8293,1.966,9.72,1111122 
DISL,ioos:station:DISL:BSCA:1,2012-12-02T00:00:00Z,30.3288,-87.8293,1.987,9.22,1111122 
DISL,ioos:station:DISL:BSCA:1,2012-12-02T00:30:00Z,30.3288,-87.8293,2.008,9.41,1111122 
DISL,ioos:station:DISL:BSCA:1,2012-12-02T01:00:00Z,30.3288,-87.8293,2.041,9.54,1111122 
DISL,ioos:station:DISL:BSCA:1,2012-12-02T01:30:00Z,30.3288,-87.8293,2.07,9.71,1111122 
DISL,ioos:station:DISL:BSCA:1,2012-12-02T02:00:00Z,30.3288,-87.8293,2.101,8.93,1111122 
DISL,ioos:station:DISL:BSCA:1,2012-12-02T02:30:00Z,30.3288,-87.8293,2.123,8.69,1111122 
DISL,ioos:station:DISL:BSCA:1,2012-12-02T03:00:00Z,30.3288,-87.8293,2.144,8.32,1111122 
DISL,ioos:station:DISL:BSCA:1,2012-12-02T03:30:00Z,30.3288,-87.8293,2.161,8.2,1111122 
DISL,ioos:station:DISL:BSCA:1,2012-12-02T04:00:00Z,30.3288,-87.8293,2.175,8.12,1111122 
DISL,ioos:station:DISL:BSCA:1,2012-12-02T04:30:00Z,30.3288,-87.8293,2.19,8.87,1111122 
DISL,ioos:station:DISL:BSCA:1,2012-12-02T05:00:00Z,30.3288,-87.8293,2.201,8.64,1111122 
DISL,ioos:station:DISL:BSCA:1,2012-12-02T05:30:00Z,30.3288,-87.8293,2.216,8.02,1111122 
DISL,ioos:station:DISL:BSCA:1,2012-12-02T06:00:00Z,30.3288,-87.8293,2.22,8.51,1111122 
DISL,ioos:station:DISL:BSCA:1,2012-12-02T06:30:00Z,30.3288,-87.8293,2.222,8.8,1111122 
DISL,ioos:station:DISL:BSCA:1,2012-12-02T07:00:00Z,30.3288,-87.8293,2.211,8.63,1111122 
DISL,ioos:station:DISL:BSCA:1,2012-12-02T07:30:00Z,30.3288,-87.8293,2.193,8.87,1111122 
DISL,ioos:station:DISL:BSCA:1,2012-12-02T08:00:00Z,30.3288,-87.8293,2.17,9.2,1111122 
DISL,ioos:station:DISL:BSCA:1,2012-12-02T08:30:00Z,30.3288,-87.8293,2.138,9.1,1111122 
DISL,ioos:station:DISL:BSCA:1,2012-12-02T09:00:00Z,30.3288,-87.8293,2.106,9.21,1111122 
DISL,ioos:station:DISL:BSCA:1,2012-12-02T09:30:00Z,30.3288,-87.8293,2.069,9.2,1111122 
DISL,ioos:station:DISL:BSCA:1,2012-12-02T10:00:00Z,30.3288,-87.8293,2.035,9.31,1111122 
DISL,ioos:station:DISL:BSCA:1,2012-12-02T10:30:00Z,30.3288,-87.8293,2.003,9.1,1111122 
DISL,ioos:station:DISL:BSCA:1,2012-12-02T11:00:00Z,30.3288,-87.8293,1.968,9.11,1111122 
DISL,ioos:station:DISL:BSCA:1,2012-12-02T11:30:00Z,30.3288,-87.8293,1.932,8.45,1111122 
DISL,ioos:station:DISL:BSCA:1,2012-12-02T12:00:00Z,30.3288,-87.8293,1.892,8.52,1111122 
DISL,ioos:station:DISL:BSCA:1,2012-12-02T12:30:00Z,30.3288,-87.8293,1.858,8.92,1111122 
DISL,ioos:station:DISL:BSCA:1,2012-12-02T13:00:00Z,30.3288,-87.8293,1.822,9.42,1111122 
DISL,ioos:station:DISL:BSCA:1,2012-12-02T13:30:00Z,30.3288,-87.8293,1.792,9.24,1111122 
DISL,ioos:station:DISL:BSCA:1,2012-12-02T14:00:00Z,30.3288,-87.8293,1.764,8.62,1111122 
DISL,ioos:station:DISL:BSCA:1,2012-12-02T14:30:00Z,30.3288,-87.8293,1.736,8.31,1111122 
DISL,ioos:station:DISL:BSCA:1,2012-12-02T15:00:00Z,30.3288,-87.8293,1.718,8.89,1111122 
DISL,ioos:station:DISL:BSCA:1,2012-12-02T15:30:00Z,30.3288,-87.8293,1.707,8.84,1111122 
DISL,ioos:station:DISL:BSCA:1,2012-12-02T16:00:00Z,30.3288,-87.8293,1.701,7.9,1111122 
DISL,ioos:station:DISL:BSCA:1,2012-12-02T16:30:00Z,30.3288,-87.8293,1.692,8.09,1111122 
DISL,ioos:station:DISL:BSCA:1,2012-12-02T17:00:00Z,30.3288,-87.8293,1.686,9.15,1111122 
DISL,ioos:station:DISL:BSCA:1,2012-12-02T17:30:00Z,30.3288,-87.8293,1.688,9.02,1111122 
DISL,ioos:station:DISL:BSCA:1,2012-12-02T18:00:00Z,30.3288,-87.8293,1.695,9.19,1111122 
DISL,ioos:station:DISL:BSCA:1,2012-12-02T18:30:00Z,30.3288,-87.8293,1.701,9.27,1111122 
DISL,ioos:station:DISL:BSCA:1,2012-12-02T19:00:00Z,30.3288,-87.8293,1.715,9.33,1111122 
DISL,ioos:station:DISL:BSCA:1,2012-12-02T19:30:00Z,30.3288,-87.8293,1.732,9.49,1111122 
DISL,ioos:station:DISL:BSCA:1,2012-12-02T20:00:00Z,30.3288,-87.8293,1.755,9.56,1111122 
DISL,ioos:station:DISL:BSCA:1,2012-12-02T20:30:00Z,30.3288,-87.8293,1.779,9.77,1111122 
DISL,ioos:station:DISL:BSCA:1,2012-12-02T21:00:00Z,30.3288,-87.8293,1.802,9.71,1111122 
DISL,ioos:station:DISL:BSCA:1,2012-12-02T21:30:00Z,30.3288,-87.8293,1.83,9.8,1111122 
DISL,ioos:station:DISL:BSCA:1,2012-12-02T22:00:00Z,30.3288,-87.8293,1.847,9.74,1111122 
DISL,ioos:station:DISL:BSCA:1,2012-12-02T22:30:00Z,30.3288,-87.8293,1.876,9.7,1111122 
DISL,ioos:station:DISL:BSCA:1,2012-12-02T23:00:00Z,30.3288,-87.8293,1.897,9.65,1111122 
DISL,ioos:station:DISL:BSCA:1,2012-12-02T23:30:00Z,30.3288,-87.8293,1.925,9.39,1111122 
DISL,ioos:station:DISL:BSCA:1,2012-12-03T00:00:00Z,30.3288,-87.8293,1.95,9.51,1111122 
DISL,ioos:station:DISL:BSCA:1,2012-12-03T00:30:00Z,30.3288,-87.8293,1.973,9.34,1111122 
DISL,ioos:station:DISL:BSCA:1,2012-12-03T01:00:00Z,30.3288,-87.8293,1.997,9.55,1111122 
DISL,ioos:station:DISL:BSCA:1,2012-12-03T01:30:00Z,30.3288,-87.8293,2.027,9.36,1111122 
DISL,ioos:station:DISL:BSCA:1,2012-12-03T02:00:00Z,30.3288,-87.8293,2.063,9.41,1111122 
DISL,ioos:station:DISL:BSCA:1,2012-12-03T02:30:00Z,30.3288,-87.8293,2.085,9.29,1111122 
DISL,ioos:station:DISL:BSCA:1,2012-12-03T03:00:00Z,30.3288,-87.8293,2.116,9.08,1111122 
DISL,ioos:station:DISL:BSCA:1,2012-12-03T03:30:00Z,30.3288,-87.8293,2.136,8.94,1111122 
DISL,ioos:station:DISL:BSCA:1,2012-12-03T04:00:00Z,30.3288,-87.8293,2.166,8.17,1111122 
DISL,ioos:station:DISL:BSCA:1,2012-12-03T04:30:00Z,30.3288,-87.8293,2.187,8.28,1111122 
DISL,ioos:station:DISL:BSCA:1,2012-12-03T05:00:00Z,30.3288,-87.8293,2.201,7.97,1111122 
DISL,ioos:station:DISL:BSCA:1,2012-12-03T05:30:00Z,30.3288,-87.8293,2.206,6.88,1111122 
DISL,ioos:station:DISL:BSCA:1,2012-12-03T06:00:00Z,30.3288,-87.8293,2.207,6.73,1111122 
DISL,ioos:station:DISL:BSCA:1,2012-12-03T06:30:00Z,30.3288,-87.8293,2.21,7.15,1111122 
DISL,ioos:station:DISL:BSCA:1,2012-12-03T07:00:00Z,30.3288,-87.8293,2.201,7.25,1111122 
DISL,ioos:station:DISL:BSCA:1,2012-12-03T07:30:00Z,30.3288,-87.8293,2.187,6.91,1111122 
DISL,ioos:station:DISL:BSCA:1,2012-12-03T08:00:00Z,30.3288,-87.8293,2.169,6.91,1111122 
DISL,ioos:station:DISL:BSCA:1,2012-12-03T08:30:00Z,30.3288,-87.8293,2.143,7.02,1111122 
DISL,ioos:station:DISL:BSCA:1,2012-12-03T09:00:00Z,30.3288,-87.8293,2.115,7.24,1111122 
DISL,ioos:station:DISL:BSCA:1,2012-12-03T09:30:00Z,30.3288,-87.8293,2.085,8.38,1111122 
DISL,ioos:station:DISL:BSCA:1,2012-12-03T10:00:00Z,30.3288,-87.8293,2.048,8.93,1111122 
DISL,ioos:station:DISL:BSCA:1,2012-12-03T10:30:00Z,30.3288,-87.8293,2.027,8.76,1111122 
DISL,ioos:station:DISL:BSCA:1,2012-12-03T11:00:00Z,30.3288,-87.8293,1.962,8.84,1111122 
DISL,ioos:station:DISL:BSCA:1,2012-12-03T11:30:00Z,30.3288,-87.8293,1.949,8.35,1111122 
DISL,ioos:station:DISL:BSCA:1,2012-12-03T12:00:00Z,30.3288,-87.8293,1.911,8.94,1111122 
DISL,ioos:station:DISL:BSCA:1,2012-12-03T12:30:00Z,30.3288,-87.8293,1.874,8.48,1111122 
DISL,ioos:station:DISL:BSCA:1,2012-12-03T13:00:00Z,30.3288,-87.8293,1.847,8.95,1111122 
DISL,ioos:station:DISL:BSCA:1,2012-12-03T13:30:00Z,30.3288,-87.8293,1.821,8.96,1111122 
DISL,ioos:station:DISL:BSCA:1,2012-12-03T14:00:00Z,30.3288,-87.8293,1.793,8.92,1111122 
DISL,ioos:station:DISL:BSCA:1,2012-12-03T14:30:00Z,30.3288,-87.8293,1.772,8.4,1111122 
DISL,ioos:station:DISL:BSCA:1,2012-12-03T15:00:00Z,30.3288,-87.8293,1.747,8.55,1111122 
DISL,ioos:station:DISL:BSCA:1,2012-12-03T15:30:00Z,30.3288,-87.8293,1.731,8.45,1111122 
DISL,ioos:station:DISL:BSCA:1,2012-12-03T16:00:00Z,30.3288,-87.8293,1.724,8.56,1111122 
DISL,ioos:station:DISL:BSCA:1,2012-12-03T16:30:00Z,30.3288,-87.8293,1.71,8.86,1111122 
DISL,ioos:station:DISL:BSCA:1,2012-12-03T17:00:00Z,30.3288,-87.8293,1.711,8.79,1111122 
DISL,ioos:station:DISL:BSCA:1,2012-12-03T17:30:00Z,30.3288,-87.8293,1.703,9.14,1111122 
DISL,ioos:station:DISL:BSCA:1,2012-12-03T18:00:00Z,30.3288,-87.8293,1.71,9.23,1111122 
DISL,ioos:station:DISL:BSCA:1,2012-12-03T18:30:00Z,30.3288,-87.8293,1.714,9.19,1111122 
DISL,ioos:station:DISL:BSCA:1,2012-12-03T19:00:00Z,30.3288,-87.8293,1.732,9.27,1111122 
DISL,ioos:station:DISL:BSCA:1,2012-12-03T19:30:00Z,30.3288,-87.8293,1.752,9.31,1111122 
DISL,ioos:station:DISL:BSCA:1,2012-12-03T20:00:00Z,30.3288,-87.8293,1.783,9.3,1111122 
DISL,ioos:station:DISL:BSCA:1,2012-12-03T20:30:00Z,30.3288,-87.8293,1.809,9.17,1111122 
DISL,ioos:station:DISL:BSCA:1,2012-12-03T21:00:00Z,30.3288,-87.8293,1.832,9.24,1111122 
DISL,ioos:station:DISL:BSCA:1,2012-12-03T21:30:00Z,30.3288,-87.8293,1.86,9.24,1111122 
DISL,ioos:station:DISL:BSCA:1,2012-12-03T22:00:00Z,30.3288,-87.8293,1.878,9.17,1111122 
DISL,ioos:station:DISL:BSCA:1,2012-12-03T22:30:00Z,30.3288,-87.8293,1.904,9.06,1111122 
DISL,ioos:station:DISL:BSCA:1,2012-12-03T23:00:00Z,30.3288,-87.8293,1.917,9.0,1111122 
DISL,ioos:station:DISL:BSCA:1,2012-12-03T23:30:00Z,30.3288,-87.8293,1.938,8.89,1111122 
DISL,ioos:station:DISL:BSCA:1,2012-12-04T00:00:00Z,30.3288,-87.8293,1.96,8.78,1111122 
DISL,ioos:station:DISL:BSCA:1,2012-12-04T00:30:00Z,30.3288,-87.8293,1.984,8.84,1111122 
DISL,ioos:station:DISL:BSCA:1,2012-12-04T01:00:00Z,30.3288,-87.8293,2.013,8.99,1111122 
DISL,ioos:station:DISL:BSCA:1,2012-12-04T01:30:00Z,30.3288,-87.8293,2.045,8.66,1111122 
DISL,ioos:station:DISL:BSCA:1,2012-12-04T02:00:00Z,30.3288,-87.8293,2.054,8.87,1111122 
DISL,ioos:station:DISL:BSCA:1,2012-12-04T02:30:00Z,30.3288,-87.8293,2.085,8.51,1111122 
DISL,ioos:station:DISL:BSCA:1,2012-12-04T03:00:00Z,30.3288,-87.8293,2.101,8.41,1111122 
DISL,ioos:station:DISL:BSCA:1,2012-12-04T03:30:00Z,30.3288,-87.8293,2.111,8.79,1111122 
DISL,ioos:station:DISL:BSCA:1,2012-12-04T04:00:00Z,30.3288,-87.8293,2.158,8.93,1111122 
DISL,ioos:station:DISL:BSCA:1,2012-12-04T04:30:00Z,30.3288,-87.8293,2.168,7.18,1111122 
DISL,ioos:station:DISL:BSCA:1,2012-12-04T05:00:00Z,30.3288,-87.8293,2.194,6.68,1111122 
DISL,ioos:station:DISL:BSCA:1,2012-12-04T05:30:00Z,30.3288,-87.8293,2.206,6.81,1111122 
DISL,ioos:station:DISL:BSCA:1,2012-12-04T06:00:00Z,30.3288,-87.8293,2.214,8.27,1111122 
DISL,ioos:station:DISL:BSCA:1,2012-12-04T06:30:00Z,30.3288,-87.8293,2.223,8.54,1111122 
DISL,ioos:station:DISL:BSCA:1,2012-12-04T07:00:00Z,30.3288,-87.8293,2.216,8.36,1111122 
DISL,ioos:station:DISL:BSCA:1,2012-12-04T07:30:00Z,30.3288,-87.8293,2.227,8.35,1111122 
DISL,ioos:station:DISL:BSCA:1,2012-12-04T08:00:00Z,30.3288,-87.8293,2.221,8.19,1111122 
DISL,ioos:station:DISL:BSCA:1,2012-12-04T08:30:00Z,30.3288,-87.8293,2.21,8.01,1111122 
DISL,ioos:station:DISL:BSCA:1,2012-12-04T09:00:00Z,30.3288,-87.8293,2.194,7.54,1111122 
DISL,ioos:station:DISL:BSCA:1,2012-12-04T09:30:00Z,30.3288,-87.8293,2.176,7.61,1111122 
DISL,ioos:station:DISL:BSCA:1,2012-12-04T10:00:00Z,30.3288,-87.8293,2.146,7.32,1111122 
DISL,ioos:station:DISL:BSCA:1,2012-12-04T10:30:00Z,30.3288,-87.8293,2.121,7.19,1111122 
DISL,ioos:station:DISL:BSCA:1,2012-12-04T11:00:00Z,30.3288,-87.8293,2.088,7.2,1111122 
DISL,ioos:station:DISL:BSCA:1,2012-12-04T11:30:00Z,30.3288,-87.8293,2.057,6.37,1111122 
DISL,ioos:station:DISL:BSCA:1,2012-12-04T12:00:00Z,30.3288,-87.8293,2.033,6.44,1111122 
DISL,ioos:station:DISL:BSCA:1,2012-12-04T12:30:00Z,30.3288,-87.8293,2.007,7.12,1111122 
DISL,ioos:station:DISL:BSCA:1,2012-12-04T13:00:00Z,30.3288,-87.8293,1.984,6.86,1111122 
DISL,ioos:station:DISL:BSCA:1,2012-12-04T13:30:00Z,30.3288,-87.8293,1.949,6.28,1111122 
DISL,ioos:station:DISL:BSCA:1,2012-12-04T14:00:00Z,30.3288,-87.8293,1.918,7.58,1111122 
DISL,ioos:station:DISL:BSCA:1,2012-12-04T14:30:00Z,30.3288,-87.8293,1.884,6.75,1111122 
DISL,ioos:station:DISL:BSCA:1,2012-12-04T15:00:00Z,30.3288,-87.8293,1.862,6.63,1111122 
DISL,ioos:station:DISL:BSCA:1,2012-12-04T15:30:00Z,30.3288,-87.8293,1.848,6.67,1111122 
DISL,ioos:station:DISL:BSCA:1,2012-12-04T16:00:00Z,30.3288,-87.8293,1.839,8.27,1111122 
DISL,ioos:station:DISL:BSCA:1,2012-12-04T16:30:00Z,30.3288,-87.8293,1.839,7.78,1111122 
DISL,ioos:station:DISL:BSCA:1,2012-12-04T17:00:00Z,30.3288,-87.8293,1.827,7.38,1111122 
DISL,ioos:station:DISL:BSCA:1,2012-12-04T17:30:00Z,30.3288,-87.8293,1.814,8.25,1111122 
DISL,ioos:station:DISL:BSCA:1,2012-12-04T18:00:00Z,30.3288,-87.8293,1.816,8.54,1111122 
DISL,ioos:station:DISL:BSCA:1,2012-12-04T18:30:00Z,30.3288,-87.8293,1.81,8.54,1111122 
DISL,ioos:station:DISL:BSCA:1,2012-12-04T19:00:00Z,30.3288,-87.8293,1.815,8.57,1111122 
DISL,ioos:station:DISL:BSCA:1,2012-12-04T19:30:00Z,30.3288,-87.8293,1.825,8.68,1111122 
DISL,ioos:station:DISL:BSCA:1,2012-12-04T20:00:00Z,30.3288,-87.8293,1.838,8.62,1111122 
DISL,ioos:station:DISL:BSCA:1,2012-12-04T20:30:00Z,30.3288,-87.8293,1.852,8.75,1111122 
DISL,ioos:station:DISL:BSCA:1,2012-12-04T21:00:00Z,30.3288,-87.8293,1.861,8.62,1111122 
DISL,ioos:station:DISL:BSCA:1,2012-12-04T21:30:00Z,30.3288,-87.8293,1.885,8.6,1111122 
DISL,ioos:station:DISL:BSCA:1,2012-12-04T22:00:00Z,30.3288,-87.8293,1.903,8.62,1111122 
DISL,ioos:station:DISL:BSCA:1,2012-12-04T22:30:00Z,30.3288,-87.8293,1.933,8.5,1111122 
DISL,ioos:station:DISL:BSCA:1,2012-12-04T23:00:00Z,30.3288,-87.8293,1.952,8.52,1111122 
DISL,ioos:station:DISL:BSCA:1,2012-12-04T23:30:00Z,30.3288,-87.8293,1.973,8.23,1111122 
DISL,ioos:station:DISL:BSCA:1,2012-12-05T00:00:00Z,30.3288,-87.8293,1.971,8.08,1111122 
DISL,ioos:station:DISL:BSCA:1,2012-12-05T00:30:00Z,30.3288,-87.8293,1.978,8.42,1111122 
DISL,ioos:station:DISL:BSCA:1,2012-12-05T01:00:00Z,30.3288,-87.8293,2.014,8.48,1111122 
DISL,ioos:station:DISL:BSCA:1,2012-12-05T01:30:00Z,30.3288,-87.8293,2.031,8.45,1111122 
DISL,ioos:station:DISL:BSCA:1,2012-12-05T02:00:00Z,30.3288,-87.8293,2.05,8.59,1111122 
DISL,ioos:station:DISL:BSCA:1,2012-12-05T02:30:00Z,30.3288,-87.8293,2.075,8.29,1111122 
DISL,ioos:station:DISL:BSCA:1,2012-12-05T03:00:00Z,30.3288,-87.8293,2.086,6.89,1111122 
DISL,ioos:station:DISL:BSCA:1,2012-12-05T03:30:00Z,30.3288,-87.8293,2.106,7.98,1111122 
DISL,ioos:station:DISL:BSCA:1,2012-12-05T04:00:00Z,30.3288,-87.8293,2.12,8.11,1111122 
DISL,ioos:station:DISL:BSCA:1,2012-12-05T04:30:00Z,30.3288,-87.8293,2.134,7.47,1111122 
DISL,ioos:station:DISL:BSCA:1,2012-12-05T05:00:00Z,30.3288,-87.8293,2.142,6.57,1111122 
DISL,ioos:station:DISL:BSCA:1,2012-12-05T05:30:00Z,30.3288,-87.8293,2.15,7.28,1111122 
DISL,ioos:station:DISL:BSCA:1,2012-12-05T06:00:00Z,30.3288,-87.8293,2.147,6.83,1111122 
DISL,ioos:station:DISL:BSCA:1,2012-12-05T06:30:00Z,30.3288,-87.8293,2.145,6.61,1111122 
DISL,ioos:station:DISL:BSCA:1,2012-12-05T07:00:00Z,30.3288,-87.8293,2.145,6.18,1111122 
DISL,ioos:station:DISL:BSCA:1,2012-12-05T07:30:00Z,30.3288,-87.8293,2.136,6.81,1111122 
DISL,ioos:station:DISL:BSCA:1,2012-12-05T08:00:00Z,30.3288,-87.8293,2.132,6.12,1111122 
DISL,ioos:station:DISL:BSCA:1,2012-12-05T08:30:00Z,30.3288,-87.8293,2.109,5.88,1111122 
DISL,ioos:station:DISL:BSCA:1,2012-12-05T09:00:00Z,30.3288,-87.8293,2.098,5.48,1111122 
DISL,ioos:station:DISL:BSCA:1,2012-12-05T09:30:00Z,30.3288,-87.8293,2.081,7.04,1111122 
DISL,ioos:station:DISL:BSCA:1,2012-12-05T10:00:00Z,30.3288,-87.8293,2.061,6.33,1111122 
DISL,ioos:station:DISL:BSCA:1,2012-12-05T10:30:00Z,30.3288,-87.8293,2.037,7.03,1111122 
DISL,ioos:station:DISL:BSCA:1,2012-12-05T11:00:00Z,30.3288,-87.8293,2.002,6.85,1111122 
DISL,ioos:station:DISL:BSCA:1,2012-12-05T11:30:00Z,30.3288,-87.8293,1.967,5.57,1111122 
DISL,ioos:station:DISL:BSCA:1,2012-12-05T12:00:00Z,30.3288,-87.8293,1.936,7.47,1111122 
DISL,ioos:station:DISL:BSCA:1,2012-12-05T12:30:00Z,30.3288,-87.8293,1.91,6.93,1111122 
DISL,ioos:station:DISL:BSCA:1,2012-12-05T13:00:00Z,30.3288,-87.8293,1.893,7.94,1111122 
DISL,ioos:station:DISL:BSCA:1,2012-12-05T13:30:00Z,30.3288,-87.8293,1.848,7.69,1111122 
DISL,ioos:station:DISL:BSCA:1,2012-12-05T14:00:00Z,30.3288,-87.8293,1.842,7.27,1111122 
DISL,ioos:station:DISL:BSCA:1,2012-12-05T14:30:00Z,30.3288,-87.8293,1.819,7.93,1111122 
DISL,ioos:station:DISL:BSCA:1,2012-12-05T15:00:00Z,30.3288,-87.8293,1.8,7.22,1111122 
DISL,ioos:station:DISL:BSCA:1,2012-12-05T15:30:00Z,30.3288,-87.8293,1.759,7.64,1111122 
DISL,ioos:station:DISL:BSCA:1,2012-12-05T16:00:00Z,30.3288,-87.8293,1.778,7.88,1111122 
DISL,ioos:station:DISL:BSCA:1,2012-12-05T16:30:00Z,30.3288,-87.8293,1.776,8.06,1111122 
DISL,ioos:station:DISL:BSCA:1,2012-12-05T17:00:00Z,30.3288,-87.8293,1.786,7.42,1111122 
DISL,ioos:station:DISL:BSCA:1,2012-12-05T17:30:00Z,30.3288,-87.8293,1.785,6.71,1111122 
DISL,ioos:station:DISL:BSCA:1,2012-12-05T18:00:00Z,30.3288,-87.8293,1.789,7.64,1111122 
DISL,ioos:station:DISL:BSCA:1,2012-12-05T18:30:00Z,30.3288,-87.8293,1.801,7.36,1111122 
DISL,ioos:station:DISL:BSCA:1,2012-12-05T19:00:00Z,30.3288,-87.8293,1.802,8.2,1111122 
DISL,ioos:station:DISL:BSCA:1,2012-12-05T19:30:00Z,30.3288,-87.8293,1.818,8.0,1111122 
DISL,ioos:station:DISL:BSCA:1,2012-12-05T20:00:00Z,30.3288,-87.8293,1.827,8.22,1111122 
DISL,ioos:station:DISL:BSCA:1,2012-12-05T20:30:00Z,30.3288,-87.8293,1.841,8.03,1111122 
DISL,ioos:station:DISL:BSCA:1,2012-12-05T21:00:00Z,30.3288,-87.8293,1.861,8.02,1111122 
DISL,ioos:station:DISL:BSCA:1,2012-12-05T21:30:00Z,30.3288,-87.8293,1.873,8.26,1111122 
DISL,ioos:station:DISL:BSCA:1,2012-12-05T22:00:00Z,30.3288,-87.8293,1.895,8.19,1111122 
DISL,ioos:station:DISL:BSCA:1,2012-12-05T22:30:00Z,30.3288,-87.8293,1.912,8.25,1111122 
DISL,ioos:station:DISL:BSCA:1,2012-12-05T23:00:00Z,30.3288,-87.8293,1.941,8.07,1111122 
DISL,ioos:station:DISL:BSCA:1,2012-12-05T23:30:00Z,30.3288,-87.8293,1.963,7.85,1111122 
DISL,ioos:station:DISL:BSCA:1,2012-12-06T00:00:00Z,30.3288,-87.8293,1.987,7.89,1111122 
DISL,ioos:station:DISL:BSCA:1,2012-12-06T00:30:00Z,30.3288,-87.8293,2.014,7.2,1111122 
DISL,ioos:station:DISL:BSCA:1,2012-12-06T01:00:00Z,30.3288,-87.8293,2.021,6.98,1111122 
DISL,ioos:station:DISL:BSCA:1,2012-12-06T01:30:00Z,30.3288,-87.8293,2.035,6.78,1111122 
DISL,ioos:station:DISL:BSCA:1,2012-12-06T02:00:00Z,30.3288,-87.8293,2.039,6.08,1111122 
DISL,ioos:station:DISL:BSCA:1,2012-12-06T02:30:00Z,30.3288,-87.8293,2.04,6.58,1111122 
DISL,ioos:station:DISL:BSCA:1,2012-12-06T03:00:00Z,30.3288,-87.8293,2.053,6.27,1111122 
DISL,ioos:station:DISL:BSCA:1,2012-12-06T03:30:00Z,30.3288,-87.8293,2.059,5.99,1111122 
DISL,ioos:station:DISL:BSCA:1,2012-12-06T04:00:00Z,30.3288,-87.8293,2.066,6.06,1111122 
DISL,ioos:station:DISL:BSCA:1,2012-12-06T04:30:00Z,30.3288,-87.8293,2.074,5.79,1111122 
DISL,ioos:station:DISL:BSCA:1,2012-12-06T05:00:00Z,30.3288,-87.8293,2.073,6.11,1111122 
DISL,ioos:station:DISL:BSCA:1,2012-12-06T05:30:00Z,30.3288,-87.8293,2.077,5.64,1111122 
DISL,ioos:station:DISL:BSCA:1,2012-12-06T06:00:00Z,30.3288,-87.8293,2.071,6.46,1111122 
DISL,ioos:station:DISL:BSCA:1,2012-12-06T06:30:00Z,30.3288,-87.8293,2.07,6.86,1111122 
DISL,ioos:station:DISL:BSCA:1,2012-12-06T07:00:00Z,30.3288,-87.8293,2.072,6.66,1111122 
DISL,ioos:station:DISL:BSCA:1,2012-12-06T07:30:00Z,30.3288,-87.8293,2.067,6.56,1111122 
DISL,ioos:station:DISL:BSCA:1,2012-12-06T08:00:00Z,30.3288,-87.8293,2.046,7.02,1111122 
DISL,ioos:station:DISL:BSCA:1,2012-12-06T08:30:00Z,30.3288,-87.8293,2.032,6.06,1111122 
DISL,ioos:station:DISL:BSCA:1,2012-12-06T09:00:00Z,30.3288,-87.8293,2.019,6.25,1111122 
DISL,ioos:station:DISL:BSCA:1,2012-12-06T09:30:00Z,30.3288,-87.8293,2.013,7.58,1111122 
DISL,ioos:station:DISL:BSCA:1,2012-12-06T10:00:00Z,30.3288,-87.8293,2.002,6.62,1111122 
DISL,ioos:station:DISL:BSCA:1,2012-12-06T10:30:00Z,30.3288,-87.8293,1.992,6.61,1111122 
DISL,ioos:station:DISL:BSCA:1,2012-12-06T11:00:00Z,30.3288,-87.8293,1.979,6.64,1111122 
DISL,ioos:station:DISL:BSCA:1,2012-12-06T11:30:00Z,30.3288,-87.8293,1.965,5.65,1111122 
DISL,ioos:station:DISL:BSCA:1,2012-12-06T12:00:00Z,30.3288,-87.8293,1.952,6.59,1111122 
DISL,ioos:station:DISL:BSCA:1,2012-12-06T12:30:00Z,30.3288,-87.8293,1.935,6.48,1111122 
DISL,ioos:station:DISL:BSCA:1,2012-12-06T13:00:00Z,30.3288,-87.8293,1.915,6.16,1111122 
DISL,ioos:station:DISL:BSCA:1,2012-12-06T13:30:00Z,30.3288,-87.8293,1.891,6.3,1111122 
DISL,ioos:station:DISL:BSCA:1,2012-12-06T14:00:00Z,30.3288,-87.8293,1.875,6.46,1111122 
DISL,ioos:station:DISL:BSCA:1,2012-12-06T14:30:00Z,30.3288,-87.8293,1.858,7.31,1111122 
DISL,ioos:station:DISL:BSCA:1,2012-12-06T15:00:00Z,30.3288,-87.8293,1.851,7.42,1111122 
DISL,ioos:station:DISL:BSCA:1,2012-12-06T15:30:00Z,30.3288,-87.8293,1.845,7.58,1111122 